Zurück zum Katalog

STARLINK-33865

AktivKommunikationVLEO
NORAD 64247·PAYLOAD·🇺🇸 United States

Gestartet Jun 3, 2025 von Cape Canaveral Space Force Station

Loading…

Nächste Überflüge (nächste 24 Stunden)

TLE

AktuellSource: CelesTrak SupGP

Epoche: Sep 15, 2026, 02:46 UTC

1 64247C 25119Q   26258.11576389  .00044899  00000+0  16261-2 0  2583
2 64247  43.0010 316.9787 0001403 265.8844  70.1083 15.27558677    12

Verfolge STARLINK-33865 in Echtzeit mit AllMySat

Download on the App Store